This demonstration page uses our WeatherBlox Daily Observations layout. Learn more.

Left ArrowRight Arrow

53.62937, 11.41316

Hourly Observations for April 10, 2022

Temp ( °F °C ) Dew Point ( °F °C ) Humidity (%) Winds ( mph kmh ) Pressure ( in mb ) Visibility ( mi km ) Precip ( " mm )
12:20 am 00:20 Mostly Clear 37 3 32 0 81 81 WSW 12 19 29.80 1009 30 48 N/A
12:50 am 00:50 Mostly Clear 37 3 32 0 81 81 W 10 17 29.80 1009 30 48 N/A
1:20 am 01:20 Mostly Clear 37 3 34 1 87 87 W 12 19 29.80 1009 30 48 N/A
1:50 am 01:50 Mostly Cloudy 37 3 34 1 87 87 WSW 9 15 29.80 1009 30 48 N/A
2:20 am 02:20 Mostly Cloudy 37 3 34 1 87 87 W 9 15 29.80 1009 30 48 N/A
2:50 am 02:50 Mostly Clear 36 2 34 1 93 93 WSW 8 13 29.80 1009 30 48 N/A
3:20 am 03:20 Mostly Cloudy 37 3 34 1 87 87 WSW 9 15 29.83 1010 30 48 N/A
3:50 am 03:50 Partly Cloudy 37 3 34 1 87 87 W 9 15 29.83 1010 30 48 N/A
4:20 am 04:20 Mostly Cloudy 37 3 34 1 87 87 WSW 12 19 29.83 1010 30 48 N/A
4:50 am 04:50 Mostly Clear 36 2 34 1 93 93 WSW 9 15 29.83 1010 30 48 N/A
5:20 am 05:20 Mostly Clear 36 2 32 0 87 87 WSW 10 17 29.83 1010 30 48 N/A
5:50 am 05:50 Mostly Clear 36 2 32 0 87 87 WSW 9 15 29.83 1010 30 48 N/A
6:20 am 06:20 Mostly Clear 36 2 32 0 87 87 WSW 9 15 29.86 1011 30 48 N/A
6:50 am 06:50 Mostly Cloudy 36 2 32 0 87 87 WSW 9 15 29.86 1011 30 48 N/A
7:20 am 07:20 Mostly Sunny 36 2 32 0 87 87 WSW 9 15 29.89 1012 30 48 N/A
7:50 am 07:50 Mostly Sunny 36 2 34 1 93 93 WSW 10 17 29.89 1012 30 48 N/A
8:20 am 08:20 Mostly Sunny 37 3 34 1 87 87 WSW 12 19 29.89 1012 30 48 N/A
8:50 am 08:50 Mostly Sunny 39 4 34 1 81 81 W 12 19 29.89 1012 30 48 N/A
9:20 am 09:20 Partly Cloudy 41 5 34 1 76 76 W 13 20 29.92 1013 30 48 N/A
9:50 am 09:50 Mostly Cloudy 43 6 34 1 71 71 W 9 15 29.92 1013 30 48 N/A
10:20 am 10:20 Mostly Cloudy with Light Rain 39 4 34 1 81 81 W 15 24 29.92 1013 4 7 N/A
10:50 am 10:50 Partly Cloudy with Showers Nearby 43 6 34 1 71 71 WNW 13 20 29.92 1013 30 48 N/A
11:20 am 11:20 Partly Cloudy 43 6 37 3 81 81 W 10 17 29.95 1014 30 48 N/A
11:50 am 11:50 Partly Cloudy 37 3 32 0 81 81 W 12 19 29.95 1014 30 48 N/A
12:20 pm 12:20 Mostly Sunny 43 6 36 2 76 76 W 10 17 29.95 1014 30 48 N/A
12:50 pm 12:50 Partly Cloudy with Showers Nearby 45 7 32 0 61 61 W 15 24 29.95 1014 30 48 N/A
1:20 pm 13:20 Partly Cloudy 46 8 32 0 57 57 W 17 28 29.94 1014 30 48 N/A
1:50 pm 13:50 Partly Cloudy 43 6 27 -3 53 53 W 15 24 29.97 1015 30 48 N/A
2:20 pm 14:20 Mostly Sunny 45 7 32 0 61 61 W 15 24 29.97 1015 30 48 N/A
2:50 pm 14:50 Partly Cloudy 45 7 36 2 71 71 W 10 17 29.97 1015 30 48 N/A
3:20 pm 15:20 Partly Cloudy with Light Rain 48 9 32 0 54 54 WNW 17 28 29.97 1015 30 48 N/A
3:50 pm 15:50 Mostly Sunny 48 9 30 -1 50 50 WNW 16 26 29.97 1015 30 48 N/A
4:20 pm 16:20 Windy with Rain Showers Likely 41 5 32 0 70 70 WNW 26 43 30.00 1016 5 8 N/A
4:50 pm 16:50 Mostly Sunny 45 7 36 2 71 71 WNW 14 22 30.00 1016 30 48 N/A
5:20 pm 17:20 Mostly Sunny 45 7 32 0 61 61 W 14 22 30.00 1016 7 11 N/A
5:50 pm 17:50 Mostly Sunny 45 7 34 1 66 66 W 13 20 30.00 1016 30 48 N/A
6:20 pm 18:20 Mostly Cloudy 45 7 32 0 61 61 W 12 19 30.00 1016 30 48 N/A
6:50 pm 18:50 Partly Cloudy 43 6 34 1 71 71 W 14 22 30.03 1017 30 48 N/A
7:20 pm 19:20 Partly Cloudy with Light Rain 43 6 36 2 76 76 W 14 22 30.03 1017 30 48 N/A
7:50 pm 19:50 Partly Cloudy 43 6 34 1 71 71 W 12 19 30.03 1017 30 48 N/A
8:20 pm 20:20 Mostly Cloudy 41 5 36 2 81 81 W 9 15 30.03 1017 30 48 N/A
8:50 pm 20:50 Mostly Cloudy with Light Rain 41 5 36 2 81 81 W 8 13 30.06 1018 30 48 N/A
9:20 pm 21:20 Mostly Cloudy 39 4 36 2 87 87 W 8 13 30.06 1018 30 48 N/A
9:50 pm 21:50 Mostly Cloudy 39 4 36 2 87 87 WSW 9 15 30.06 1018 30 48 N/A
10:20 pm 22:20 Mostly Clear 39 4 34 1 81 81 WSW 7 11 30.06 1018 30 48 N/A
10:50 pm 22:50 Mostly Cloudy 39 4 34 1 81 81 WSW 8 13 30.06 1018 30 48 N/A
11:20 pm 23:20 Cloudy 39 4 36 2 87 87 WSW 7 11 30.06 1018 30 48 N/A
11:50 pm 23:50 Mostly Cloudy 39 4 36 2 87 87 WSW 8 13 30.06 1018 30 48 N/A

Powered by AerisWeather